Wind_Speed
16 15 14 12 11 9 8 7 6 6 6 7 7 9 10 11 12 12 13 13 13 13 14 14 14 14 14 13 13 13 13 14 14 15 16 16 16 16 16 16 15 15 14
16 15 14 12 11 9 8 7 6 6 6 7 8 9 10 11 12 12 13 13 13 14 14 14 14 14 14 13 13 14 14 15 15 16 16 17 17 17 16 16 16 16 15
16 15 13 12 10 9 8 7 7 6 7 8 9 10 11 11 12 12 12 12 13 13 14 14 14 14 14 14 14 14 15 16 16 17 17 17 17 17 17 17 17 16 16
15 14 12 11 10 9 8 8 8 8 8 9 10 10 11 12 12 12 12 12 13 13 14 14 14 15 15 14 15 15 16 17 17 17 18 18 18 18 18 18 18 17 17
15 14 12 11 10 10 9 9 10 10 10 10 11 11 12 12 13 13 13 13 13 14 14 15 15 15 15 15 15 16 17 18 18 18 19 19 19 19 19 19 19 18 18
16 14 13 12 11 11 11 11 11 12 12 12 13 13 13 14 14 14 14 14 14 14 15 15 15 15 15 16 16 17 17 18 18 19 19 19 19 19 19 19 19 19 18
18 16 15 14 13 13 13 13 13 13 13 14 14 15 15 15 15 15 15 14 14 15 15 15 16 16 16 16 17 17 18 18 18 19 19 19 19 19 19 19 19 19 19
19 18 17 16 16 15 15 15 14 15 15 15 15 16 16 16 16 16 16 15 15 16 16 16 16 16 17 17 18 18 18 19 19 19 19 19 18 18 18 18 18 19 19
22 20 19 19 18 18 17 17 16 16 16 16 16 16 17 17 17 17 17 16 16 16 17 17 17 18 18 18 18 19 19 19 19 19 19 19 19 18 18 18 19 19 19
24 23 22 21 21 20 20 19 18 17 17 17 17 17 17 17 18 18 17 17 17 18 18 18 19 19 19 19 19 20 20 20 20 20 20 20 19 19 19 19 19 19 20
27 25 25 24 23 22 21 20 20 19 19 18 18 17 17 18 18 18 18 18 19 19 20 20 20 20 21 21 21 21 21 21 21 21 21 21 20 20 20 20 20 20 21
29 27 27 26 25 24 23 22 21 21 20 20 19 18 18 18 19 19 19 19 20 20 21 22 22 22 23 23 23 23 22 22 23 23 22 22 22 21 21 21 21 21 21
30 29 29 28 27 26 25 24 23 22 22 21 21 20 19 19 20 20 20 20 21 22 22 23 23 24 25 25 25 25 24 24 24 24 24 24 24 23 23 23 23 23 22
32 32 31 30 29 28 26 25 24 23 23 22 22 22 21 21 21 22 22 22 23 23 24 25 25 25 26 27 27 27 27 26 26 26 26 26 26 26 25 25 25 24 24
34 34 33 32 30 29 28 26 25 24 24 23 23 23 23 22 22 23 24 24 25 26 26 26 27 27 27 28 29 29 29 29 28 28 28 28 28 28 28 27 27 27 26
36 35 34 33 31 30 29 28 27 26 25 24 24 25 25 24 24 25 26 27 27 28 28 29 29 29 30 30 31 32 32 32 31 31 31 31 31 31 30 29 29 29 29
38 37 36 34 33 32 30 29 28 27 26 26 26 26 27 27 27 27 27 28 29 30 30 31 32 32 32 33 34 35 36 36 35 35 34 34 34 34 33 32 32 31 31
39 38 37 35 34 33 32 30 29 28 27 27 27 28 29 29 30 29 29 29 30 31 32 33 34 35 36 36 37 38 39 39 38 38 37 37 37 37 37 36 35 34 34
39 38 37 35 34 33 33 32 30 29 29 29 29 30 30 31 31 32 32 32 33 34 35 36 37 38 38 39 41 41 42 42 42 42 41 41 40 40 40 39 39 38 37
39 38 37 36 35 35 34 33 32 31 31 31 31 31 32 32 33 34 35 35 37 37 38 39 40 40 41 42 43 44 45 45 45 45 45 44 44 43 43 43 42 41 41
40 39 38 37 36 36 35 35 34 33 33 33 34 34 34 35 36 36 37 38 39 40 41 42 42 43 44 45 46 47 48 48 48 48 48 48 47 47 46 45 45 45 44
40 40 39 39 38 37 37 36 36 35 35 36 36 37 37 38 39 39 39 40 41 42 43 44 45 46 47 48 49 50 50 50 49 51 51 51 50 50 49 48 48 47 47
42 41 41 40 40 39 38 38 38 38 38 38 38 39 39 40 40 41 42 43 44 45 45 46 47 48 49 50 50 52 52 52 52 52 53 53 53 53 52 51 51 50 49
43 42 42 42 42 41 40 40 40 39 40 40 40 40 40 41 42 43 44 45 46 47 47 48 49 50 50 50 51 52 54 54 55 55 54 55 56 56 55 55 54 53 52
43 43 43 43 42 42 41 41 41 41 41 41 41 41 42 43 43 44 45 46 47 48 48 49 50 50 50 51 52 53 55 56 57 58 58 58 58 58 58 57 56 55 55
43 43 43 43 42 42 42 41 41 41 42 42 42 43 43 44 45 45 46 47 47 47 48 48 48 49 50 51 53 54 55 57 58 59 60 60 60 60 59 59 58 57 57
Wind_Direction
230 234 239 243 247 251 256 261 267 275 283 292 299 304 309 314 317 319 320 319 319 318 317 317 317 317 316 316 313 310 307 304 304 304 304 304 304 305 305 305 304 304 304
232 235 238 240 243 247 252 258 264 272 283 293 301 306 310 313 315 316 316 315 314 314 314 314 314 314 313 312 310 307 304 302 301 301 300 300 300 300 300 300 300 300 300
231 231 233 236 241 246 253 261 269 277 286 294 300 304 308 311 312 312 313 312 312 312 312 312 311 311 310 309 307 304 301 300 299 298 297 296 296 296 296 297 297 297 297
231 230 232 235 240 248 258 267 275 281 287 292 296 300 305 308 309 309 309 309 309 310 310 310 310 309 308 306 304 301 299 298 297 296 294 294 294 294 294 294 294 294 295
233 233 235 238 243 251 260 268 276 280 285 289 293 298 301 303 304 305 306 306 306 308 309 309 308 307 306 304 302 300 298 297 296 295 295 295 294 293 293 293 293 292 293
234 236 240 243 247 252 259 266 272 277 282 286 291 296 298 300 302 303 304 304 304 305 306 307 306 305 304 302 300 298 296 294 294 294 294 294 293 293 292 292 292 292 292
236 239 243 247 250 254 258 263 267 273 278 283 288 293 297 299 302 304 304 303 303 303 304 305 305 303 301 300 298 296 294 292 291 291 292 292 292 292 292 292 292 293 294
238 242 246 251 254 257 259 262 265 268 272 279 285 290 294 298 301 304 304 304 303 303 304 304 303 302 301 299 296 295 293 292 291 291 292 292 292 291 291 291 292 293 294
239 244 248 252 256 259 262 263 265 267 271 277 282 288 292 296 299 302 303 304 304 303 303 303 302 301 300 298 296 295 294 293 292 292 292 292 291 291 291 292 293 293 293
240 245 249 254 257 260 263 265 267 270 274 278 281 285 290 294 297 299 301 302 302 302 301 301 300 300 299 298 296 294 293 292 292 292 291 291 291 290 291 292 292 293 293
240 244 249 253 257 260 263 266 269 273 277 280 282 284 287 291 294 296 299 300 301 300 300 299 299 298 297 296 294 293 293 292 291 290 289 289 288 288 289 290 291 292 293
239 243 248 252 256 259 262 266 270 275 279 283 285 287 289 290 292 293 296 297 298 298 298 298 298 297 296 295 293 292 292 292 291 290 289 287 286 286 286 287 288 289 290
239 243 246 250 254 257 261 265 270 275 280 283 286 288 289 291 292 293 294 294 294 295 295 295 295 295 295 294 293 292 291 290 290 289 289 287 286 285 285 285 286 286 287
238 241 245 249 252 256 260 264 269 273 278 282 284 286 288 289 291 291 292 293 293 293 293 294 294 294 293 292 292 291 291 290 289 289 288 287 286 286 285 284 284 284 284
236 240 244 248 252 256 260 264 267 271 275 278 281 283 285 287 288 290 291 293 293 293 293 293 293 293 292 292 291 290 290 290 289 288 287 286 285 284 283 282 282 282 282
235 238 242 246 250 254 258 261 264 268 272 275 277 280 283 284 286 287 289 291 292 293 294 294 293 292 291 290 290 289 288 288 288 287 286 285 284 282 281 280 279 279 279
236 238 241 243 247 250 254 257 261 264 268 271 274 277 280 283 284 285 287 289 290 292 293 293 293 292 291 290 289 288 287 287 285 284 284 283 282 281 280 279 278 277 276
237 240 242 245 247 249 252 255 258 261 265 268 272 275 278 281 283 284 285 286 288 289 290 291 291 291 290 290 288 287 286 285 284 283 282 281 280 279 279 278 276 275 274
238 240 243 246 248 250 252 254 257 261 264 266 270 273 276 279 282 284 286 287 288 289 289 290 289 289 289 288 287 286 285 284 283 282 281 279 278 277 276 275 274 273 273
239 240 243 245 248 250 253 255 258 262 265 268 270 273 276 279 281 284 286 287 289 289 290 290 290 290 289 288 287 287 286 285 284 283 281 280 278 277 275 274 274 273 271
240 241 242 244 247 250 254 257 260 263 266 270 272 275 277 279 281 283 285 287 288 289 289 289 290 290 289 289 288 288 287 286 286 284 282 281 279 277 276 275 274 272 271
241 242 244 245 247 250 253 257 261 264 268 271 274 276 278 280 282 284 285 286 287 288 288 289 289 289 289 289 289 288 287 287 288 286 284 283 281 279 278 276 274 273 271
240 243 245 247 249 252 254 258 261 265 268 271 273 274 276 278 281 283 285 286 287 288 289 289 290 289 289 289 289 289 289 289 287 286 286 285 283 281 279 277 275 273 271
240 243 246 248 252 255 257 260 262 265 268 270 272 274 275 277 279 281 283 285 286 287 288 289 289 289 289 289 289 290 290 290 289 288 286 285 283 281 278 276 274 271 270
241 243 246 249 253 256 259 261 264 266 268 270 272 273 275 276 278 280 282 284 285 286 287 288 289 289 290 291 291 291 290 290 289 289 287 285 282 280 277 275 273 271 269
241 244 247 249 252 256 259 261 264 266 269 270 272 274 275 276 278 279 281 283 284 286 287 288 288 289 290 291 292 292 291 291 290 289 288 286 283 280 277 274 271 269 268
Height
5894 5895 5896 5897 5897 5898 5898 5898 5899 5899 5899 5900 5900 5900 5900 5900 5899 5899 5898 5898 5897 5896 5896 5895 5894 5893 5893 5892 5891 5890 5889 5888 5887 5886 5885 5884 5882 5881 5880 5879 5877 5876 5875
5892 5893 5894 5895 5896 5896 5897 5897 5898 5898 5898 5899 5899 5899 5899 5899 5898 5898 5897 5896 5896 5895 5894 5893 5893 5892 5891 5890 5889 5888 5887 5886 5885 5884 5883 5882 5880 5879 5878 5876 5875 5874 5873
5890 5891 5892 5893 5894 5895 5895 5896 5897 5897 5897 5898 5898 5898 5898 5898 5897 5897 5896 5895 5894 5893 5893 5892 5891 5890 5889 5888 5887 5886 5885 5884 5883 5882 5881 5879 5878 5877 5875 5874 5873 5871 5870
5888 5889 5890 5892 5893 5893 5894 5895 5895 5896 5896 5897 5897 5897 5897 5896 5896 5895 5894 5894 5893 5892 5891 5890 5889 5888 5887 5886 5885 5884 5883 5881 5881 5879 5878 5877 5876 5874 5873 5871 5870 5869 5867
5885 5887 5888 5890 5891 5892 5893 5894 5894 5895 5895 5895 5896 5895 5895 5895 5894 5893 5893 5892 5891 5890 5889 5888 5887 5886 5885 5884 5883 5881 5880 5879 5878 5876 5875 5874 5873 5871 5870 5869 5867 5866 5864
5883 5885 5886 5888 5889 5890 5891 5892 5893 5893 5894 5894 5894 5894 5893 5893 5892 5891 5890 5889 5888 5887 5886 5885 5884 5883 5882 5881 5880 5879 5877 5876 5875 5873 5872 5871 5870 5868 5867 5865 5864 5863 5861
5880 5882 5884 5886 5887 5888 5890 5890 5891 5892 5892 5892 5892 5892 5891 5891 5890 5889 5888 5887 5886 5885 5884 5883 5882 5881 5879 5878 5877 5876 5874 5873 5872 5871 5869 5868 5866 5865 5864 5862 5861 5860 5858
5878 5880 5882 5883 5885 5886 5887 5888 5889 5890 5890 5890 5890 5889 5889 5888 5887 5886 5885 5884 5883 5882 5881 5880 5879 5878 5877 5875 5874 5873 5871 5870 5869 5867 5866 5865 5863 5862 5861 5859 5858 5856 5855
5875 5877 5879 5881 5883 5884 5885 5886 5887 5887 5887 5887 5887 5887 5886 5885 5884 5883 5882 5881 5880 5879 5878 5877 5876 5875 5873 5872 5871 5869 5868 5866 5865 5864 5862 5861 5860 5858 5857 5856 5854 5853 5851
5872 5874 5876 5878 5880 5881 5882 5883 5884 5884 5884 5884 5884 5884 5883 5882 5881 5880 5879 5878 5877 5876 5875 5873 5872 5871 5870 5868 5867 5866 5864 5863 5861 5860 5859 5857 5856 5855 5853 5852 5851 5849 5848
5868 5871 5873 5875 5877 5878 5879 5880 5880 5881 5881 5881 5881 5881 5880 5879 5878 5877 5876 5875 5874 5872 5871 5870 5869 5868 5866 5865 5863 5862 5861 5859 5857 5856 5855 5853 5852 5851 5849 5848 5846 5845 5844
5864 5867 5869 5871 5873 5874 5875 5876 5877 5877 5877 5877 5877 5877 5876 5875 5874 5873 5872 5871 5870 5869 5867 5866 5865 5864 5862 5861 5859 5858 5857 5855 5854 5852 5851 5849 5848 5846 5845 5844 5842 5841 5839
5860 5863 5865 5867 5869 5870 5871 5872 5873 5873 5873 5873 5873 5873 5872 5871 5870 5869 5868 5867 5866 5865 5863 5862 5861 5859 5858 5856 5855 5854 5853 5851 5849 5848 5846 5845 5843 5842 5841 5839 5838 5836 5835
5855 5858 5860 5862 5864 5866 5867 5868 5869 5869 5869 5869 5869 5869 5868 5867 5866 5865 5864 5863 5862 5861 5859 5858 5857 5855 5854 5852 5850 5849 5848 5846 5845 5843 5841 5840 5838 5837 5835 5834 5833 5831 5830
5850 5852 5855 5857 5859 5861 5862 5863 5864 5865 5865 5865 5865 5864 5864 5863 5862 5861 5860 5859 5857 5856 5855 5853 5852 5850 5849 5847 5845 5844 5842 5841 5839 5838 5836 5834 5833 5831 5830 5828 5827 5826 5824
5844 5847 5850 5853 5855 5856 5858 5858 5859 5860 5860 5860 5860 5859 5859 5858 5858 5857 5856 5854 5853 5851 5850 5848 5847 5845 5844 5842 5840 5838 5836 5835 5834 5832 5830 5828 5826 5825 5823 5822 5820 5819 5818
5838 5841 5844 5847 5849 5851 5852 5853 5854 5855 5855 5855 5855 5854 5854 5853 5853 5852 5851 5850 5848 5846 5845 5843 5841 5839 5837 5836 5834 5832 5830 5828 5827 5825 5823 5821 5819 5818 5816 5815 5814 5812 5811
5832 5835 5838 5841 5843 5845 5846 5848 5848 5849 5850 5850 5849 5849 5848 5847 5847 5846 5846 5844 5842 5840 5839 5837 5835 5832 5831 5829 5827 5824 5822 5821 5819 5818 5816 5814 5812 5810 5808 5807 5806 5804 5803
5825 5828 5831 5833 5836 5838 5839 5841 5842 5843 5844 5844 5844 5843 5842 5842 5840 5839 5838 5837 5835 5834 5832 5830 5828 5825 5823 5821 5819 5816 5814 5813 5811 5809 5807 5805 5803 5801 5799 5798 5797 5796 5794
5819 5822 5824 5826 5828 5830 5832 5833 5835 5836 5837 5837 5837 5837 5836 5835 5834 5832 5831 5829 5827 5825 5823 5821 5819 5817 5815 5812 5810 5808 5805 5803 5801 5800 5798 5796 5794 5792 5790 5788 5787 5786 5784
5812 5815 5817 5820 5821 5823 5825 5826 5827 5829 5829 5829 5829 5829 5828 5827 5826 5825 5823 5821 5819 5817 5815 5812 5810 5807 5805 5802 5799 5797 5795 5793 5791 5789 5787 5785 5783 5781 5779 5778 5776 5775 5774
5804 5807 5809 5812 5814 5816 5818 5819 5820 5821 5822 5822 5821 5821 5820 5818 5817 5816 5814 5812 5810 5808 5806 5803 5800 5798 5795 5791 5788 5785 5784 5783 5780 5777 5775 5773 5771 5769 5768 5766 5765 5764 5762
5796 5799 5802 5804 5806 5808 5810 5812 5813 5814 5814 5814 5814 5813 5811 5810 5809 5807 5805 5803 5801 5798 5796 5793 5790 5787 5784 5781 5777 5774 5771 5770 5768 5766 5762 5760 5758 5757 5755 5754 5753 5751 5750
5789 5791 5794 5796 5798 5800 5802 5804 5805 5805 5806 5806 5805 5804 5803 5802 5800 5798 5796 5793 5791 5788 5786 5783 5779 5776 5773 5770 5766 5762 5759 5757 5754 5752 5751 5747 5744 5743 5741 5740 5738 5738 5737
5781 5784 5786 5789 5791 5792 5794 5795 5796 5797 5797 5797 5796 5795 5794 5793 5791 5789 5786 5784 5781 5778 5775 5772 5769 5765 5762 5758 5755 5751 5746 5743 5740 5736 5735 5734 5730 5728 5726 5724 5724 5723 5723
5773 5775 5778 5780 5782 5784 5785 5786 5787 5787 5787 5787 5786 5785 5784 5783 5781 5779 5776 5774 5771 5768 5765 5762 5758 5754 5751 5747 5743 5739 5734 5730 5726 5722 5718 5716 5714 5712 5709 5708 5708 5707 5707